FW1340 Weather Reports


time (UTC)temp
C
wind
direction
speed
KPH
gust
KPH
rain 1hr
cm
rain 24hr
cm
rain mn
cm
humidity
%
barometer
mb
20260503214533 21 258 0.0 0.0 0.00 0.00 0.00 56 1011.9
20260503213038 21 246 0.0 0.0 0.00 0.00 0.00 56 1012.1
20260503211529 21 279 0.0 0.0 0.00 0.00 0.00 57 1012.2
20260503210026 20 241 0.0 0.0 0.00 0.00 0.00 57 1012.3
20260503204525 20 256 0.0 0.0 0.00 0.00 0.00 60 1012.4
20260503203020 19 265 0.0 0.0 0.00 0.00 0.00 61 1012.4
20260503201527 18 331 0.0 0.0 0.00 0.00 0.00 63 1012.6
20260503200017 18 229 0.0 0.0 0.00 0.00 0.00 64 1012.5
20260503194518 18 227 0.0 0.0 0.00 0.00 0.00 63 1012.6
20260503193014 18 300 0.0 0.0 0.00 0.00 0.00 61 1012.6
20260503191514 18 278 0.0 0.0 0.00 0.00 0.00 63 1012.7
20260503190017 18 266 0.0 0.0 0.00 0.00 0.00 64 1013.0
20260503184504 17 347 0.0 0.0 0.00 0.00 0.00 65 1013.1
20260503183006 17 264 0.0 0.0 0.00 0.00 0.00 65 1013.1
20260503181504 17 244 0.0 0.0 0.00 0.00 0.00 66 1013.0
20260503180135 17 276 0.0 0.0 0.00 0.00 0.00 67 1013.1
20260503174558 16 254 0.0 0.0 0.00 0.00 0.00 70 1013.1
20260503173100 16 270 0.0 0.0 0.00 0.00 0.00 73 1013.1
20260503171550 15 282 0.0 0.0 0.00 0.00 0.00 73 1013.1
20260503120107 11 265 0.0 0.0 0.00 0.00 0.00 86 1010.3
20260503100104 12 283 0.0 0.0 0.00 0.00 0.00 86 1010.2
20260503081538 12 300 0.0 0.0 0.00 0.00 0.00 85 1011.0
20260503071535 12 271 0.0 0.0 0.00 0.00 0.00 84 1011.0
20260503054525 13 244 0.0 0.0 0.00 0.00 0.00 83 1011.4
20260503053035 13 273 0.0 0.0 0.00 0.00 0.00 83 1011.4
20260503051523 13 287 0.0 0.0 0.00 0.00 0.00 83 1011.5
20260503050022 13 278 0.0 0.0 0.00 0.00 0.00 82 1011.3
20260503044558 13 263 0.0 0.0 0.00 0.00 0.00 81 1011.2
20260503043021 13 271 0.0 0.0 0.00 0.00 0.00 80 1010.9
20260503041522 14 259 0.0 0.0 0.00 0.00 0.00 78 1010.9
20260503040021 15 255 0.0 0.0 0.00 0.00 0.00 77 1010.9
20260503034519 15 273 0.0 0.0 0.00 0.00 0.00 75 1010.7
20260503033019 15 296 0.0 0.0 0.00 0.00 0.00 74 1010.6
20260503031518 16 263 0.0 0.0 0.00 0.00 0.00 72 1010.4
20260503030017 16 277 0.0 0.0 0.00 0.00 0.00 71 1010.4
20260503024517 16 275 0.0 0.0 0.00 0.00 0.00 70 1010.3
20260503023018 17 259 0.0 0.0 0.00 0.00 0.00 69 1010.1
20260503021519 17 287 0.0 0.0 0.00 0.00 0.00 67 1010.0
20260503020028 18 287 0.0 0.0 0.00 0.00 0.00 65 1010.0
20260503014515 18 275 0.0 0.0 0.00 0.00 0.00 64 1010.0
20260503013014 19 254 0.0 0.0 0.00 0.00 0.00 64 1010.0
20260503011513 20 261 0.0 0.0 0.00 0.00 0.00 64 1010.1
20260503010013 20 267 0.0 0.0 0.00 0.00 0.00 60 1010.0
20260503004512 21 275 0.0 0.0 0.00 0.00 0.00 59 1010.0
20260503003023 22 312 0.0 0.0 0.00 0.00 0.00 58 1010.0
20260503001511 22 298 0.0 0.0 0.00 0.00 0.00 55 1009.9
20260503000016 22 284 0.0 0.0 0.00 0.00 0.00 56 1010.0
20260502234509 23 313 0.0 0.0 0.00 0.00 0.00 56 1010.1
20260502233007 22 268 0.0 0.0 0.00 0.00 0.00 56 1010.3
20260502231504 22 254 0.0 0.0 0.00 0.00 0.00 56 1010.4
20260502230003 22 270 0.0 0.0 0.00 0.00 0.00 56 1010.6
20260502224501 22 329 0.0 0.0 0.00 0.00 0.00 57 1010.8
20260502223107 22 305 0.0 0.0 0.00 0.00 0.00 58 1010.9
20260502221602 23 269 0.0 0.0 0.00 0.00 0.00 56 1011.1